Location: Newark
(45.7655°N, 4.8796°E)
Time: 19:31:18
(UTC+00:00)

Envisat - Visible Passes

Search period start: 20 November 2019 00:00
Search period end: 30 November 2019 00:00
Orbit: 764 x 766 km, 98.1° (Epoch: 20 November)

Date Brightness Start Highest point End Pass type
(mag) Time Alt. Az. Time Alt. Az. Time Alt. Az.
20 Nov 5.9 05:25:19 10° NE 05:28:51 19° E 05:32:21 10° SE visible
20 Nov 3.7 16:41:51 10° SE 16:46:18 31° ENE 16:50:45 10° N visible
20 Nov 4.5 18:20:35 10° SSW 18:25:14 36° W 18:29:55 10° NNW visible
21 Nov 3.1 17:43:15 10° S 17:48:20 77° WSW 17:53:27 10° NNW visible
22 Nov 5.1 05:50:05 10° NNE 05:54:36 31° E 05:59:04 10° SSE visible
22 Nov 3.1 17:06:43 10° SE 17:11:38 51° ENE 17:16:33 10° N visible
22 Nov 5.4 18:47:04 10° SW 18:50:56 22° W 18:54:50 10° NW visible
23 Nov 6.1 05:14:36 10° NE 05:17:27 15° E 05:20:17 10° ESE visible
23 Nov 3.9 16:30:58 10° ESE 16:35:07 26° ENE 16:39:16 10° N visible
23 Nov 4.1 18:09:03 10° S 18:13:54 45° W 18:18:47 10° NNW visible
24 Nov 4.0 06:15:15 10° NNE 06:20:14 53° E 06:25:11 10° S visible
24 Nov 2.9 17:31:58 10° SSE 17:37:03 86° ENE 17:42:10 10° NNW visible
24 Nov 6.1 19:14:36 10° WSW 19:16:45 13° W 19:18:55 10° WNW visible
25 Nov 5.5 05:39:03 10° NE 05:43:14 25° E 05:47:23 10° SSE visible
25 Nov 3.3 16:55:40 10° SE 17:00:25 42° ENE 17:05:10 10° N visible
25 Nov 5.1 18:35:18 10° SSW 18:39:34 27° W 18:43:51 10° NW visible
26 Nov 6.3 05:04:16 10° ENE 05:06:01 12° E 05:07:45 10° ESE visible
26 Nov 3.7 17:57:36 10° S 18:02:35 56° W 18:07:36 10° NNW visible
27 Nov 4.5 06:04:04 10° NNE 06:08:54 42° E 06:13:42 10° SSE visible
27 Nov 2.9 17:20:45 10° SSE 17:25:47 70° ENE 17:30:52 10° N visible
27 Nov 5.8 19:02:16 10° SW 19:05:20 16° W 19:08:24 10° NW visible
28 Nov 5.8 05:28:06 10° NE 05:31:51 20° E 05:35:34 10° SE visible
28 Nov 3.6 16:44:40 10° SE 16:49:12 34° ENE 16:53:45 10° N visible
28 Nov 4.7 18:23:39 10° SSW 18:28:12 33° W 18:32:48 10° NNW visible
29 Nov 3.2 17:46:14 10° S 17:51:17 71° WSW 17:56:23 10° NNW visible
